Location: ??????
(55.8143°N, 38.2555°E)
Time: 06:20:19
(UTC+00:00)

Cosmos 2333 - Pass Details

Date: 23 May 2024
Orbit: 828 x 866 km, 70.9° (Epoch: 23 June)

Event Time Altitude Azimuth Distance (km) Brightness Sun altitude
Rises 23:59:14 0° 324° (NW) 3,422 7.6 -6.8°
Reaches altitude 10° 00:01:42 10° 322° (NW) 2,489 6.9 -6.6°
Maximum altitude 00:07:22 65° 242° (WSW) 940 4.3 -6.1°
Drops below altitude 10° 00:13:02 10° 162° (SSE) 2,496 6.3 -5.6°
Sets 00:15:30 0° 159° (SSE) 3,432 7.1 -5.4°
